Saint Bonnet de Bellac- Haute Vienne - France
Donnes mto: mardi, 17/01/2012
Date Horaire Temp. E. Hum. E. P.atmo. Pluie Vent Direction Direction Ensoleilleme Solaire P. de rose Temp au vent Rafales
17/01/2012 00:00 -1,2 C 90 % 1022,4 hPa 0,0 mm 3,6 km/h (1 Bft) E-SE 112 0 min 0 W/m -2,6 C -1,2 C 7,9 km/h (2 Bft)
17/01/2012 00:10 -1,2 C 90 % 1022,5 hPa 0,0 mm 1,1 km/h (1 Bft) E-SE 112 0 min 0 W/m -2,6 C -1,2 C 3,6 km/h (1 Bft)
17/01/2012 00:20 -1,2 C 90 % 1022,5 hPa 0,0 mm 1,8 km/h (1 Bft) E 90 0 min 0 W/m -2,6 C -1,2 C 4,3 km/h (1 Bft)
17/01/2012 00:30 -1,2 C 91 % 1022,6 hPa 0,0 mm 0,7 km/h (0 Bft) E-SE 112 0 min 0 W/m -2,5 C -1,2 C 4,0 km/h (1 Bft)
17/01/2012 00:40 -1,2 C 91 % 1022,5 hPa 0,0 mm 2,9 km/h (1 Bft) E-SE 112 0 min 0 W/m -2,5 C -1,2 C 7,9 km/h (2 Bft)
17/01/2012 00:50 -1,2 C 91 % 1022,7 hPa 0,0 mm 1,4 km/h (1 Bft) E 90 0 min 0 W/m -2,5 C -1,2 C 6,1 km/h (2 Bft)
17/01/2012 01:00 -1,2 C 91 % 1022,8 hPa 0,0 mm 2,9 km/h (1 Bft) E-SE 112 0 min 0 W/m -2,5 C -1,2 C 7,2 km/h (2 Bft)
17/01/2012 01:10 -1,2 C 91 % 1022,9 hPa 0,0 mm 3,2 km/h (1 Bft) SE 135 0 min 0 W/m -2,5 C -1,2 C 3,2 km/h (1 Bft)
17/01/2012 01:20 -1,1 C 91 % 1022,9 hPa 0,0 mm 0,7 km/h (0 Bft) E-SE 112 0 min 0 W/m -2,4 C -1,1 C 0,7 km/h (0 Bft)
17/01/2012 01:30 -1,1 C 91 % 1022,8 hPa 0,0 mm 1,4 km/h (1 Bft) E-SE 112 0 min 0 W/m -2,4 C -1,1 C 4,3 km/h (1 Bft)
17/01/2012 01:40 -1,2 C 91 % 1023,0 hPa 0,0 mm 2,5 km/h (1 Bft) E-SE 112 0 min 0 W/m -2,5 C -1,2 C 6,5 km/h (2 Bft)
17/01/2012 01:50 -1,4 C 91 % 1023,0 hPa 0,0 mm 1,4 km/h (1 Bft) E 90 0 min 0 W/m -2,7 C -1,4 C 3,6 km/h (1 Bft)
17/01/2012 02:02 -1,4 C 91 % 1023,2 hPa 0,0 mm 0,0 km/h (0 Bft) E-SE 112 0 min 0 W/m -2,7 C -1,4 C 0,0 km/h (0 Bft)
17/01/2012 02:10 -1,6 C 91 % 1023,2 hPa 0,0 mm 0,0 km/h (0 Bft) E 90 0 min 0 W/m -2,9 C -1,6 C 0,0 km/h (0 Bft)
17/01/2012 02:20 -1,6 C 91 % 1023,2 hPa 0,0 mm 1,8 km/h (1 Bft) E-SE 112 0 min 0 W/m -2,9 C -1,6 C 4,3 km/h (1 Bft)
17/01/2012 02:30 -1,4 C 91 % 1023,4 hPa 0,0 mm 2,5 km/h (1 Bft) E-SE 112 0 min 0 W/m -2,7 C -1,4 C 4,3 km/h (1 Bft)
17/01/2012 02:40 -1,4 C 91 % 1023,6 hPa 0,0 mm 0,4 km/h (0 Bft) SE 135 0 min 0 W/m -2,7 C -1,4 C 3,6 km/h (1 Bft)
17/01/2012 02:50 -1,4 C 91 % 1023,9 hPa 0,0 mm 0,7 km/h (0 Bft) E 90 0 min 0 W/m -2,7 C -1,4 C 6,5 km/h (2 Bft)
17/01/2012 03:00 -1,4 C 91 % 1024,0 hPa 0,0 mm 0,4 km/h (0 Bft) E-SE 112 0 min 0 W/m -2,7 C -1,4 C 0,4 km/h (0 Bft)
17/01/2012 03:10 -1,5 C 91 % 1024,0 hPa 0,0 mm 1,1 km/h (1 Bft) E-SE 112 0 min 0 W/m -2,8 C -1,5 C 4,0 km/h (1 Bft)
17/01/2012 03:20 -1,6 C 91 % 1024,0 hPa 0,0 mm 2,2 km/h (1 Bft) E 90 0 min 0 W/m -2,9 C -1,6 C 4,0 km/h (1 Bft)
17/01/2012 03:30 -1,6 C 91 % 1024,1 hPa 0,0 mm 1,4 km/h (1 Bft) E-SE 112 0 min 0 W/m -2,9 C -1,6 C 4,3 km/h (1 Bft)
17/01/2012 03:40 -1,7 C 91 % 1024,0 hPa 0,0 mm 4,3 km/h (1 Bft) E-NE 67 0 min 0 W/m -3,0 C -1,7 C 6,5 km/h (2 Bft)
17/01/2012 03:50 -1,7 C 92 % 1024,0 hPa 0,0 mm 0,7 km/h (0 Bft) E-SE 112 0 min 0 W/m -2,8 C -1,7 C 3,6 km/h (1 Bft)
17/01/2012 04:00 -1,7 C 92 % 1024,2 hPa 0,0 mm 0,0 km/h (0 Bft) SE 135 0 min 0 W/m -2,8 C -1,7 C 0,0 km/h (0 Bft)
17/01/2012 04:10 -1,7 C 92 % 1024,3 hPa 0,0 mm 1,1 km/h (1 Bft) E-SE 112 0 min 0 W/m -2,8 C -1,7 C 2,9 km/h (1 Bft)
17/01/2012 04:20 -1,7 C 92 % 1024,3 hPa 0,0 mm 0,0 km/h (0 Bft) E-SE 112 0 min 0 W/m -2,8 C -1,7 C 0,0 km/h (0 Bft)
17/01/2012 04:30 -1,9 C 92 % 1024,6 hPa 0,0 mm 0,0 km/h (0 Bft) E-SE 112 0 min 0 W/m -3,0 C -1,9 C 0,0 km/h (0 Bft)
17/01/2012 04:40 -2,0 C 92 % 1024,6 hPa 0,0 mm 1,1 km/h (1 Bft) SE 135 0 min 0 W/m -3,1 C -2,0 C 3,6 km/h (1 Bft)
17/01/2012 04:50 -2,0 C 92 % 1024,8 hPa 0,0 mm 1,8 km/h (1 Bft) SE 135 0 min 0 W/m -3,1 C -2,0 C 4,0 km/h (1 Bft)
17/01/2012 05:00 -1,9 C 92 % 1024,7 hPa 0,0 mm 1,4 km/h (1 Bft) E-SE 112 0 min 0 W/m -3,0 C -1,9 C 4,0 km/h (1 Bft)
17/01/2012 05:10 -1,9 C 92 % 1024,8 hPa 0,0 mm 1,1 km/h (1 Bft) E-SE 112 0 min 0 W/m -3,0 C -1,9 C 4,0 km/h (1 Bft)
17/01/2012 05:20 -1,7 C 92 % 1024,8 hPa 0,0 mm 2,5 km/h (1 Bft) E-SE 112 0 min 0 W/m -2,8 C -1,7 C 4,3 km/h (1 Bft)
17/01/2012 05:30 -1,6 C 92 % 1024,8 hPa 0,0 mm 1,8 km/h (1 Bft) SE 135 0 min 0 W/m -2,7 C -1,6 C 6,1 km/h (2 Bft)
17/01/2012 05:40 -1,7 C 92 % 1024,9 hPa 0,0 mm 2,2 km/h (1 Bft) E-SE 112 0 min 0 W/m -2,8 C -1,7 C 4,0 km/h (1 Bft)
17/01/2012 05:50 -1,7 C 92 % 1024,9 hPa 0,0 mm 4,7 km/h (1 Bft) E 90 0 min 0 W/m -2,8 C -3,4 C 6,8 km/h (2 Bft)
17/01/2012 06:00 -1,8 C 92 % 1025,0 hPa 0,0 mm 1,4 km/h (1 Bft) E-SE 112 0 min 0 W/m -2,9 C -1,8 C 4,3 km/h (1 Bft)
17/01/2012 06:10 -1,9 C 92 % 1025,0 hPa 0,0 mm 1,1 km/h (1 Bft) SE 135 0 min 0 W/m -3,0 C -1,9 C 4,0 km/h (1 Bft)
17/01/2012 06:20 -2,0 C 92 % 1025,1 hPa 0,0 mm 0,0 km/h (0 Bft) E-SE 112 0 min 0 W/m -3,1 C -2,0 C 0,0 km/h (0 Bft)
17/01/2012 06:30 -2,2 C 92 % 1025,2 hPa 0,0 mm 2,5 km/h (1 Bft) E 90 0 min 0 W/m -3,3 C -2,2 C 6,1 km/h (2 Bft)
17/01/2012 06:40 -2,2 C 92 % 1025,1 hPa 0,0 mm 1,4 km/h (1 Bft) E-SE 112 0 min 0 W/m -3,3 C -2,2 C 6,1 km/h (2 Bft)
17/01/2012 06:50 -2,2 C 92 % 1025,0 hPa 0,0 mm 4,3 km/h (1 Bft) SE 135 0 min 0 W/m -3,3 C -2,2 C 8,6 km/h (2 Bft)
17/01/2012 07:00 -2,2 C 92 % 1025,0 hPa 0,0 mm 1,1 km/h (1 Bft) SE 135 0 min 0 W/m -3,3 C -2,2 C 3,2 km/h (1 Bft)
17/01/2012 07:10 -2,1 C 92 % 1024,9 hPa 0,0 mm 2,9 km/h (1 Bft) E-SE 112 0 min 0 W/m -3,2 C -2,1 C 3,2 km/h (1 Bft)
17/01/2012 07:20 -2,2 C 92 % 1024,7 hPa 0,0 mm 5,0 km/h (1 Bft) E-SE 112 0 min 0 W/m -3,3 C -4,1 C 8,3 km/h (2 Bft)
17/01/2012 07:30 -2,1 C 92 % 1024,8 hPa 0,0 mm 4,0 km/h (1 Bft) E-SE 112 0 min 0 W/m -3,2 C -2,1 C 7,6 km/h (2 Bft)
17/01/2012 07:40 -2,0 C 93 % 1024,8 hPa 0,0 mm 3,6 km/h (1 Bft) E 90 0 min 0 W/m -3,0 C -2,0 C 7,2 km/h (2 Bft)
17/01/2012 07:50 -1,9 C 93 % 1025,0 hPa 0,0 mm 2,5 km/h (1 Bft) E-SE 112 0 min 0 W/m -2,9 C -1,9 C 4,3 km/h (1 Bft)
17/01/2012 08:00 -1,8 C 93 % 1025,1 hPa 0,0 mm 1,8 km/h (1 Bft) SE 135 0 min 0 W/m -2,8 C -1,8 C 4,3 km/h (1 Bft)
17/01/2012 08:10 -1,6 C 93 % 1025,1 hPa 0,0 mm 2,5 km/h (1 Bft) E-SE 112 0 min 0 W/m -2,6 C -1,6 C 4,3 km/h (1 Bft)
17/01/2012 08:20 -1,2 C 93 % 1025,3 hPa 0,0 mm 1,1 km/h (1 Bft) E 90 0 min 0 W/m -2,2 C -1,2 C 4,0 km/h (1 Bft)
17/01/2012 08:30 -1,2 C 92 % 1025,6 hPa 0,0 mm 0,0 km/h (0 Bft) S-SE 157 0 min 0 W/m -2,3 C -1,2 C 0,0 km/h (0 Bft)
17/01/2012 08:40 -1,7 C 92 % 1025,9 hPa 0,0 mm 3,2 km/h (1 Bft) SE 135 0 min 0 W/m -2,8 C -1,7 C 4,3 km/h (1 Bft)
17/01/2012 08:50 -1,6 C 93 % 1025,9 hPa 0,0 mm 1,4 km/h (1 Bft) SE 135 2 min 0 W/m -2,6 C -1,6 C 3,2 km/h (1 Bft)
17/01/2012 09:00 -1,2 C 93 % 1026,0 hPa 0,0 mm 0,7 km/h (0 Bft) E-SE 112 2 min 0 W/m -2,2 C -1,2 C 0,7 km/h (0 Bft)
17/01/2012 09:10 -0,9 C 93 % 1026,2 hPa 0,0 mm 0,4 km/h (0 Bft) SE 135 2 min 0 W/m -1,9 C -0,9 C 0,4 km/h (0 Bft)
17/01/2012 09:20 -0,4 C 93 % 1026,3 hPa 0,0 mm 0,7 km/h (0 Bft) E-SE 112 2 min 0 W/m -1,4 C -0,4 C 2,9 km/h (1 Bft)
17/01/2012 09:30 0,2 C 93 % 1026,6 hPa 0,0 mm 0,0 km/h (0 Bft) SE 135 2 min 0 W/m -0,8 C 0,2 C 3,6 km/h (1 Bft)
17/01/2012 09:40 0,8 C 93 % 1026,6 hPa 0,0 mm 2,9 km/h (1 Bft) E-SE 112 2 min 0 W/m -0,2 C 0,8 C 6,1 km/h (2 Bft)
17/01/2012 09:50 0,8 C 92 % 1026,6 hPa 0,0 mm 0,0 km/h (0 Bft) E-SE 112 2 min 0 W/m -0,3 C 0,8 C 0,0 km/h (0 Bft)
17/01/2012 10:00 0,8 C 92 % 1026,8 hPa 0,0 mm 0,0 km/h (0 Bft) E-SE 112 2 min 0 W/m -0,3 C 0,8 C 0,0 km/h (0 Bft)
17/01/2012 10:10 0,7 C 92 % 1027,1 hPa 0,0 mm 0,0 km/h (0 Bft) O-SO 247 2 min 0 W/m -0,4 C 0,7 C 0,0 km/h (0 Bft)
17/01/2012 10:20 0,5 C 92 % 1027,2 hPa 0,0 mm 0,0 km/h (0 Bft) O-SO 247 2 min 0 W/m -0,6 C 0,5 C 0,0 km/h (0 Bft)
17/01/2012 10:30 0,6 C 92 % 1027,3 hPa 0,0 mm 0,0 km/h (0 Bft) O-SO 247 2 min 0 W/m -0,5 C 0,6 C 0,0 km/h (0 Bft)
17/01/2012 10:40 0,7 C 92 % 1027,5 hPa 0,0 mm 0,0 km/h (0 Bft) O-SO 247 2 min 0 W/m -0,4 C 0,7 C 0,0 km/h (0 Bft)
17/01/2012 10:50 0,8 C 93 % 1027,5 hPa 0,0 mm 0,0 km/h (0 Bft) O-SO 247 2 min 0 W/m -0,2 C 0,8 C 0,0 km/h (0 Bft)
17/01/2012 11:00 1,1 C 93 % 1027,7 hPa 0,0 mm 0,0 km/h (0 Bft) O 270 2 min 0 W/m 0,1 C 1,1 C 0,0 km/h (0 Bft)
17/01/2012 11:10 1,4 C 93 % 1027,7 hPa 0,0 mm 0,0 km/h (0 Bft) O 270 2 min 0 W/m 0,4 C 1,4 C 0,0 km/h (0 Bft)
17/01/2012 11:20 1,6 C 93 % 1027,7 hPa 0,0 mm 0,0 km/h (0 Bft) NO 315 2 min 0 W/m 0,6 C 1,6 C 0,0 km/h (0 Bft)
17/01/2012 11:30 1,8 C 93 % 1027,8 hPa 0,0 mm 0,0 km/h (0 Bft) NO 315 2 min 0 W/m 0,8 C 1,8 C 0,0 km/h (0 Bft)
17/01/2012 11:40 2,1 C 93 % 1027,8 hPa 0,0 mm 0,0 km/h (0 Bft) NO 315 2 min 0 W/m 1,1 C 2,1 C 0,0 km/h (0 Bft)
17/01/2012 11:50 2,6 C 93 % 1027,8 hPa 0,0 mm 0,0 km/h (0 Bft) NO 315 2 min 0 W/m 1,6 C 2,6 C 0,0 km/h (0 Bft)
17/01/2012 12:00 3,5 C 93 % 1027,7 hPa 0,0 mm 0,0 km/h (0 Bft) N-NO 337 2 min 0 W/m 2,5 C 3,5 C 2,9 km/h (1 Bft)
17/01/2012 12:10 4,3 C 92 % 1027,5 hPa 0,0 mm 0,7 km/h (0 Bft) N-NE 22 2 min 0 W/m 3,1 C 4,3 C 3,6 km/h (1 Bft)
17/01/2012 12:20 5,4 C 90 % 1027,5 hPa 0,0 mm 0,0 km/h (0 Bft) N-NE 22 2 min 0 W/m 3,9 C 5,4 C 0,0 km/h (0 Bft)
17/01/2012 12:30 6,4 C 88 % 1027,6 hPa 0,0 mm 0,0 km/h (0 Bft) N-NE 22 2 min 0 W/m 4,6 C 6,4 C 0,0 km/h (0 Bft)
17/01/2012 12:40 7,1 C 87 % 1027,5 hPa 0,0 mm 0,0 km/h (0 Bft) N-NE 22 2 min 0 W/m 5,1 C 7,1 C 0,0 km/h (0 Bft)
17/01/2012 12:50 7,9 C 84 % 1027,6 hPa 0,0 mm 1,1 km/h (1 Bft) N-NE 22 2 min 0 W/m 5,4 C 7,9 C 1,4 km/h (1 Bft)
17/01/2012 13:00 8,5 C 82 % 1027,6 hPa 0,0 mm 0,0 km/h (0 Bft) N-NE 22 2 min 0 W/m 5,6 C 8,5 C 0,0 km/h (0 Bft)
17/01/2012 13:10 9,0 C 80 % 1027,6 hPa 0,0 mm 0,0 km/h (0 Bft) N-NE 22 2 min 0 W/m 5,7 C 9,0 C 0,0 km/h (0 Bft)
17/01/2012 13:20 9,4 C 81 % 1027,5 hPa 0,0 mm 1,8 km/h (1 Bft) NE 45 2 min 0 W/m 6,3 C 9,4 C 4,3 km/h (1 Bft)
17/01/2012 13:30 9,5 C 79 % 1027,6 hPa 0,0 mm 0,0 km/h (0 Bft) NE 45 2 min 0 W/m 6,0 C 9,5 C 0,0 km/h (0 Bft)
17/01/2012 13:40 9,7 C 78 % 1027,5 hPa 0,0 mm 1,8 km/h (1 Bft) NE 45 2 min 0 W/m 6,1 C 9,7 C 4,0 km/h (1 Bft)
17/01/2012 13:50 9,7 C 77 % 1027,6 hPa 0,0 mm 1,8 km/h (1 Bft) NE 45 2 min 0 W/m 5,9 C 9,7 C 4,3 km/h (1 Bft)
17/01/2012 14:00 9,4 C 77 % 1027,6 hPa 0,0 mm 3,6 km/h (1 Bft) N-NE 22 2 min 0 W/m 5,6 C 9,4 C 3,6 km/h (1 Bft)
17/01/2012 14:10 9,2 C 77 % 1027,6 hPa 0,0 mm 0,7 km/h (0 Bft) N-NE 22 2 min 0 W/m 5,4 C 9,2 C 0,7 km/h (0 Bft)
17/01/2012 14:20 9,3 C 78 % 1027,5 hPa 0,0 mm 2,9 km/h (1 Bft) N-NE 22 2 min 0 W/m 5,7 C 9,3 C 4,0 km/h (1 Bft)
17/01/2012 14:30 9,5 C 77 % 1027,4 hPa 0,0 mm 0,0 km/h (0 Bft) NE 45 2 min 0 W/m 5,7 C 9,5 C 0,0 km/h (0 Bft)
17/01/2012 14:40 9,4 C 76 % 1027,4 hPa 0,0 mm 0,0 km/h (0 Bft) N-NE 22 2 min 0 W/m 5,4 C 9,4 C 0,0 km/h (0 Bft)
17/01/2012 14:50 9,4 C 77 % 1027,1 hPa 0,0 mm 0,4 km/h (0 Bft) NE 45 2 min 0 W/m 5,6 C 9,4 C 3,6 km/h (1 Bft)
17/01/2012 15:00 9,3 C 76 % 1027,0 hPa 0,0 mm 0,4 km/h (0 Bft) NE 45 2 min 0 W/m 5,3 C 9,3 C 3,6 km/h (1 Bft)
17/01/2012 15:10 9,3 C 77 % 1027,0 hPa 0,0 mm 0,0 km/h (0 Bft) NE 45 2 min 0 W/m 5,5 C 9,3 C 0,0 km/h (0 Bft)
17/01/2012 15:20 9,3 C 77 % 1026,8 hPa 0,0 mm 0,0 km/h (0 Bft) E-NE 67 2 min 0 W/m 5,5 C 9,3 C 0,0 km/h (0 Bft)
17/01/2012 15:30 9,2 C 77 % 1026,9 hPa 0,0 mm 0,0 km/h (0 Bft) E-NE 67 2 min 0 W/m 5,4 C 9,2 C 0,0 km/h (0 Bft)
17/01/2012 15:40 8,9 C 77 % 1027,1 hPa 0,0 mm 0,0 km/h (0 Bft) E-NE 67 2 min 0 W/m 5,1 C 8,9 C 0,0 km/h (0 Bft)
17/01/2012 15:50 8,8 C 77 % 1027,1 hPa 0,0 mm 0,0 km/h (0 Bft) E-NE 67 2 min 0 W/m 5,0 C 8,8 C 0,0 km/h (0 Bft)
17/01/2012 16:00 8,4 C 77 % 1027,1 hPa 0,0 mm 0,0 km/h (0 Bft) E-NE 67 2 min 0 W/m 4,6 C 8,4 C 0,0 km/h (0 Bft)
17/01/2012 16:10 8,1 C 78 % 1027,1 hPa 0,0 mm 0,0 km/h (0 Bft) E-NE 67 2 min 0 W/m 4,5 C 8,1 C 0,0 km/h (0 Bft)
17/01/2012 16:20 7,8 C 79 % 1027,3 hPa 0,0 mm 0,0 km/h (0 Bft) E-NE 67 2 min 0 W/m 4,4 C 7,8 C 0,0 km/h (0 Bft)
17/01/2012 16:30 7,3 C 80 % 1027,3 hPa 0,0 mm 0,0 km/h (0 Bft) E-NE 67 2 min 0 W/m 4,1 C 7,3 C 0,0 km/h (0 Bft)
17/01/2012 16:40 6,9 C 80 % 1027,2 hPa 0,0 mm 0,0 km/h (0 Bft) E-NE 67 2 min 0 W/m 3,7 C 6,9 C 0,0 km/h (0 Bft)
17/01/2012 16:50 6,5 C 81 % 1027,4 hPa 0,0 mm 0,0 km/h (0 Bft) E-NE 67 2 min 0 W/m 3,5 C 6,5 C 0,0 km/h (0 Bft)
17/01/2012 17:00 6,2 C 82 % 1027,6 hPa 0,0 mm 0,0 km/h (0 Bft) E-NE 67 2 min 0 W/m 3,4 C 6,2 C 0,0 km/h (0 Bft)
17/01/2012 17:10 5,8 C 82 % 1027,6 hPa 0,0 mm 0,0 km/h (0 Bft) E-NE 67 2 min 0 W/m 3,0 C 5,8 C 0,0 km/h (0 Bft)
17/01/2012 17:20 5,5 C 82 % 1027,6 hPa 0,0 mm 0,0 km/h (0 Bft) E-NE 67 2 min 0 W/m 2,7 C 5,5 C 0,0 km/h (0 Bft)
17/01/2012 17:30 5,2 C 83 % 1027,9 hPa 0,0 mm 0,0 km/h (0 Bft) E-NE 67 0 min 0 W/m 2,6 C 5,2 C 0,0 km/h (0 Bft)
17/01/2012 17:40 4,9 C 83 % 1027,8 hPa 0,0 mm 0,0 km/h (0 Bft) E-NE 67 0 min 0 W/m 2,3 C 4,9 C 0,0 km/h (0 Bft)
17/01/2012 17:50 4,6 C 84 % 1027,7 hPa 0,0 mm 0,0 km/h (0 Bft) E-NE 67 0 min 0 W/m 2,1 C 4,6 C 0,0 km/h (0 Bft)
17/01/2012 18:00 4,3 C 84 % 1027,8 hPa 0,0 mm 0,0 km/h (0 Bft) E-NE 67 0 min 0 W/m 1,8 C 4,3 C 0,0 km/h (0 Bft)
17/01/2012 18:10 4,0 C 85 % 1027,7 hPa 0,0 mm 0,0 km/h (0 Bft) SE 135 0 min 0 W/m 1,7 C 4,0 C 3,2 km/h (1 Bft)
17/01/2012 18:20 3,7 C 86 % 1027,8 hPa 0,0 mm 0,0 km/h (0 Bft) S-SE 157 0 min 0 W/m 1,6 C 3,7 C 0,0 km/h (0 Bft)
17/01/2012 18:30 3,4 C 86 % 1027,8 hPa 0,0 mm 0,0 km/h (0 Bft) S 180 0 min 0 W/m 1,3 C 3,4 C 0,0 km/h (0 Bft)
17/01/2012 18:40 3,1 C 87 % 1027,9 hPa 0,0 mm 0,0 km/h (0 Bft) S 180 0 min 0 W/m 1,2 C 3,1 C 0,0 km/h (0 Bft)
17/01/2012 18:50 2,9 C 87 % 1028,1 hPa 0,0 mm 0,0 km/h (0 Bft) SO 225 0 min 0 W/m 1,0 C 2,9 C 0,0 km/h (0 Bft)
17/01/2012 19:00 2,6 C 87 % 1028,2 hPa 0,0 mm 0,0 km/h (0 Bft) SO 225 0 min 0 W/m 0,7 C 2,6 C 0,0 km/h (0 Bft)
17/01/2012 19:10 2,6 C 88 % 1028,3 hPa 0,0 mm 0,0 km/h (0 Bft) O 270 0 min 0 W/m 0,8 C 2,6 C 0,0 km/h (0 Bft)
17/01/2012 19:20 2,8 C 89 % 1028,3 hPa 0,0 mm 0,0 km/h (0 Bft) O-SO 247 0 min 0 W/m 1,2 C 2,8 C 0,0 km/h (0 Bft)
17/01/2012 19:30 2,8 C 90 % 1028,3 hPa 0,0 mm 0,0 km/h (0 Bft) O-SO 247 0 min 0 W/m 1,3 C 2,8 C 0,0 km/h (0 Bft)
17/01/2012 19:40 2,8 C 90 % 1028,5 hPa 0,0 mm 0,0 km/h (0 Bft) O-SO 247 0 min 0 W/m 1,3 C 2,8 C 0,0 km/h (0 Bft)
17/01/2012 19:50 2,8 C 90 % 1028,4 hPa 0,0 mm 0,0 km/h (0 Bft) O-SO 247 0 min 0 W/m 1,3 C 2,8 C 0,0 km/h (0 Bft)
17/01/2012 20:00 2,6 C 90 % 1028,6 hPa 0,0 mm 0,0 km/h (0 Bft) O-SO 247 0 min 0 W/m 1,1 C 2,6 C 0,0 km/h (0 Bft)
17/01/2012 20:10 2,4 C 90 % 1028,7 hPa 0,0 mm 0,0 km/h (0 Bft) O-SO 247 0 min 0 W/m 0,9 C 2,4 C 0,0 km/h (0 Bft)
17/01/2012 20:20 2,3 C 90 % 1028,7 hPa 0,0 mm 0,0 km/h (0 Bft) O-SO 247 0 min 0 W/m 0,8 C 2,3 C 0,0 km/h (0 Bft)
17/01/2012 20:30 2,3 C 90 % 1028,8 hPa 0,0 mm 0,0 km/h (0 Bft) O-SO 247 0 min 0 W/m 0,8 C 2,3 C 0,0 km/h (0 Bft)
17/01/2012 20:40 2,2 C 90 % 1028,6 hPa 0,0 mm 0,0 km/h (0 Bft) O-SO 247 0 min 0 W/m 0,7 C 2,2 C 0,0 km/h (0 Bft)
17/01/2012 20:50 2,1 C 91 % 1028,9 hPa 0,0 mm 0,0 km/h (0 Bft) O-SO 247 0 min 0 W/m 0,8 C 2,1 C 0,0 km/h (0 Bft)
17/01/2012 21:00 1,9 C 91 % 1029,1 hPa 0,0 mm 0,0 km/h (0 Bft) O-SO 247 0 min 0 W/m 0,6 C 1,9 C 0,0 km/h (0 Bft)
17/01/2012 21:10 1,8 C 91 % 1028,9 hPa 0,0 mm 1,1 km/h (1 Bft) S-SO 202 0 min 0 W/m 0,5 C 1,8 C 3,2 km/h (1 Bft)
17/01/2012 21:20 1,8 C 91 % 1028,9 hPa 0,0 mm 0,7 km/h (0 Bft) S-SO 202 0 min 0 W/m 0,5 C 1,8 C 0,7 km/h (0 Bft)
17/01/2012 21:30 1,8 C 92 % 1028,7 hPa 0,0 mm 0,0 km/h (0 Bft) SO 225 0 min 0 W/m 0,6 C 1,8 C 0,0 km/h (0 Bft)
17/01/2012 21:40 1,7 C 92 % 1028,8 hPa 0,0 mm 0,0 km/h (0 Bft) S-SO 202 0 min 0 W/m 0,5 C 1,7 C 0,0 km/h (0 Bft)
17/01/2012 21:50 1,6 C 92 % 1028,9 hPa 0,0 mm 0,0 km/h (0 Bft) S-SO 202 0 min 0 W/m 0,4 C 1,6 C 0,0 km/h (0 Bft)
17/01/2012 22:00 1,6 C 92 % 1029,0 hPa 0,0 mm 0,0 km/h (0 Bft) S-SO 202 0 min 0 W/m 0,4 C 1,6 C 0,0 km/h (0 Bft)
17/01/2012 22:10 1,8 C 92 % 1028,8 hPa 0,0 mm 0,4 km/h (0 Bft) S-SE 157 0 min 0 W/m 0,6 C 1,8 C 2,9 km/h (1 Bft)
17/01/2012 22:20 2,1 C 92 % 1028,9 hPa 0,0 mm 1,1 km/h (1 Bft) S-SO 202 0 min 0 W/m 0,9 C 2,1 C 3,6 km/h (1 Bft)
17/01/2012 22:30 2,3 C 92 % 1029,1 hPa 0,0 mm 0,0 km/h (0 Bft) S-SO 202 0 min 0 W/m 1,1 C 2,3 C 0,0 km/h (0 Bft)
17/01/2012 22:40 2,4 C 92 % 1029,3 hPa 0,0 mm 0,0 km/h (0 Bft) SO 225 0 min 0 W/m 1,2 C 2,4 C 0,0 km/h (0 Bft)
17/01/2012 22:50 2,4 C 92 % 1029,6 hPa 0,0 mm 0,0 km/h (0 Bft) SO 225 0 min 0 W/m 1,2 C 2,4 C 0,0 km/h (0 Bft)
17/01/2012 23:00 2,4 C 92 % 1029,6 hPa 0,0 mm 0,0 km/h (0 Bft) SO 225 0 min 0 W/m 1,2 C 2,4 C 0,0 km/h (0 Bft)
17/01/2012 23:10 2,4 C 92 % 1029,8 hPa 0,0 mm 0,0 km/h (0 Bft) SO 225 0 min 0 W/m 1,2 C 2,4 C 0,0 km/h (0 Bft)
17/01/2012 23:20 2,4 C 92 % 1029,9 hPa 0,0 mm 0,0 km/h (0 Bft) SO 225 0 min 0 W/m 1,2 C 2,4 C 0,0 km/h (0 Bft)
17/01/2012 23:30 2,5 C 92 % 1029,9 hPa 0,0 mm 0,0 km/h (0 Bft) SO 225 0 min 0 W/m 1,3 C 2,5 C 0,0 km/h (0 Bft)
17/01/2012 23:40 2,4 C 92 % 1029,9 hPa 0,0 mm 0,4 km/h (0 Bft) S-SO 202 0 min 0 W/m 1,2 C 2,4 C 0,4 km/h (0 Bft)
17/01/2012 23:50 2,5 C 92 % 1029,7 hPa 0,0 mm 0,7 km/h (0 Bft) S 180 0 min 0 W/m 1,3 C 2,5 C 3,6 km/h (1 Bft)
_ Min-Heure 07:20 15:00 00:00 - 23:30 - - - - 07:20 07:20 23:30
Minimum _ -2,2 C 76 % 1022,4 hPa - 0,0 km/h (0 Bft) - - - - -3,3 C -4,1 C 0,0 km/h (0 Bft)
_ Max-Heure 13:50 12:00 23:40 23:50 07:20 - - 17:20 23:50 13:20 13:50 06:50
Maximum _ 9,7 C 93 % 1029,9 hPa 0,0 mm 5,0 km/h
E-SE (1 Bft)
- - 2 min 0 W/m 6,3 C 9,7 C 8,6 km/h
SE (2 Bft)
Moyenne _ 2,1 C 89 % 1026,5 hPa #0,0 mm 0,8 km/h (0 Bft) E-SE - #1:44 h 0 W/m 0,3 C 2,0 C 2,0 km/h (1 Bft)
Saint Bonnet de Bellac- Haute Vienne - France